Time,TemperatureF,DewpointF,PressureIn,WindDirection,WindDirectionDegrees,WindSpeedMPH,WindSpeedGustMPH,Humidity,HourlyPrecipIn,Conditions,Clouds,dailyrainin,SoftwareType,DateUTC
2013-12-01 00:02:00,31.3,23.7,30.09,SSE,157,0.0,0.0,73,0.00,,,0.00,WUHU21636XXSP,2013-12-01 06:02:00,
2013-12-01 00:07:00,31.1,23.5,30.09,SSE,157,0.0,0.0,73,0.00,,,0.00,WUHU21636XXSP,2013-12-01 06:07:00,
2013-12-01 00:12:00,30.9,23.3,30.09,SSE,157,0.0,0.0,73,0.00,,,0.00,WUHU21636XXSP,2013-12-01 06:12:00,
2013-12-01 00:17:00,30.6,23.0,30.09,SSE,157,0.0,0.0,73,0.00,,,0.00,WUHU21636XXSP,2013-12-01 06:17:00,
2013-12-01 00:22:00,30.1,22.6,30.09,SSE,157,0.0,0.0,73,0.00,,,0.00,WUHU21636XXSP,2013-12-01 06:22:00,
2013-12-01 00:27:00,29.9,22.4,30.09,SSE,157,0.0,0.0,73,0.00,,,0.00,WUHU21636XXSP,2013-12-01 06:27:00,
2013-12-01 00:32:00,29.9,22.4,30.09,SSE,157,0.0,0.0,73,0.00,,,0.00,WUHU21636XXSP,2013-12-01 06:32:00,
2013-12-01 00:37:00,29.8,22.3,30.09,SSE,157,0.0,0.0,73,0.00,,,0.00,WUHU21636XXSP,2013-12-01 06:37:00,
2013-12-01 00:42:00,29.6,22.4,30.09,SSE,157,0.0,0.0,74,0.00,,,0.00,WUHU21636XXSP,2013-12-01 06:42:00,
2013-12-01 00:47:00,29.2,22.0,30.09,SSE,157,0.0,0.0,74,0.00,,,0.00,WUHU21636XXSP,2013-12-01 06:47:00,
2013-12-01 00:52:00,29.2,22.0,30.09,SSE,157,0.0,0.0,74,0.00,,,0.00,WUHU21636XXSP,2013-12-01 06:52:00,
2013-12-01 00:57:00,29.0,21.8,30.09,SSE,157,0.0,0.0,74,0.00,,,0.00,WUHU21636XXSP,2013-12-01 06:57:00,
2013-12-01 01:02:00,28.9,21.7,30.09,SSE,157,0.0,0.0,74,0.00,,,0.00,WUHU21636XXSP,2013-12-01 07:02:00,
2013-12-01 01:07:00,28.7,21.8,30.09,SSE,157,0.0,0.0,75,0.00,,,0.00,WUHU21636XXSP,2013-12-01 07:07:00,
2013-12-01 01:12:00,28.7,21.8,30.09,SSE,157,0.0,0.0,75,0.00,,,0.00,WUHU21636XXSP,2013-12-01 07:12:00,
2013-12-01 01:17:00,28.2,21.4,30.10,SSE,157,0.0,0.0,75,0.00,,,0.00,WUHU21636XXSP,2013-12-01 07:17:00,
2013-12-01 01:22:00,28.2,21.7,30.10,SSE,157,0.0,0.0,76,0.00,,,0.00,WUHU21636XXSP,2013-12-01 07:22:00,
2013-12-01 01:27:00,28.2,21.7,30.10,SSE,157,0.0,0.0,76,0.00,,,0.00,WUHU21636XXSP,2013-12-01 07:27:00,
2013-12-01 01:32:00,28.2,21.7,30.10,SSE,157,0.0,0.0,76,0.00,,,0.00,WUHU21636XXSP,2013-12-01 07:32:00,
2013-12-01 01:37:00,28.2,21.7,30.10,SSE,157,0.0,0.0,76,0.00,,,0.00,WUHU21636XXSP,2013-12-01 07:37:00,
2013-12-01 01:42:00,28.2,21.7,30.10,SSE,157,0.0,0.0,76,0.00,,,0.00,WUHU21636XXSP,2013-12-01 07:42:00,
2013-12-01 01:47:00,28.2,22.0,30.10,SSE,157,0.0,0.0,77,0.00,,,0.00,WUHU21636XXSP,2013-12-01 07:47:00,
2013-12-01 01:52:00,28.2,22.0,30.10,SSE,157,0.0,0.0,77,0.00,,,0.00,WUHU21636XXSP,2013-12-01 07:52:00,
2013-12-01 01:57:00,28.2,22.0,30.11,SSE,157,0.0,0.0,77,0.00,,,0.00,WUHU21636XXSP,2013-12-01 07:57:00,
2013-12-01 02:02:00,28.2,22.0,30.11,SSE,157,0.0,0.0,77,0.00,,,0.00,WUHU21636XXSP,2013-12-01 08:02:00,
2013-12-01 02:07:00,28.2,22.0,30.10,SSE,157,0.0,0.0,77,0.00,,,0.00,WUHU21636XXSP,2013-12-01 08:07:00,
2013-12-01 02:12:00,28.2,22.0,30.10,SSE,157,0.0,0.0,77,0.00,,,0.00,WUHU21636XXSP,2013-12-01 08:12:00,
2013-12-01 02:17:00,28.2,22.0,30.10,SSE,157,0.0,0.0,77,0.00,,,0.00,WUHU21636XXSP,2013-12-01 08:17:00,
2013-12-01 02:22:00,28.2,22.3,30.11,SSE,157,0.0,0.0,78,0.00,,,0.00,WUHU21636XXSP,2013-12-01 08:22:00,
2013-12-01 02:27:00,28.2,22.3,30.11,SSE,157,0.0,0.0,78,0.00,,,0.00,WUHU21636XXSP,2013-12-01 08:27:00,
2013-12-01 02:32:00,28.2,22.3,30.11,SSE,157,0.0,0.0,78,0.00,,,0.00,WUHU21636XXSP,2013-12-01 08:32:00,
2013-12-01 02:37:00,28.2,22.3,30.11,SSE,157,0.0,0.0,78,0.00,,,0.00,WUHU21636XXSP,2013-12-01 08:37:00,
2013-12-01 02:42:00,28.2,22.3,30.11,SSE,157,0.0,0.0,78,0.00,,,0.00,WUHU21636XXSP,2013-12-01 08:42:00,
2013-12-01 02:47:00,28.2,22.3,30.11,SSE,157,0.0,0.0,78,0.00,,,0.00,WUHU21636XXSP,2013-12-01 08:47:00,
2013-12-01 02:52:00,28.2,22.3,30.11,SSE,157,0.0,0.0,78,0.00,,,0.00,WUHU21636XXSP,2013-12-01 08:52:00,
2013-12-01 02:57:00,28.0,22.1,30.11,SSE,157,0.0,0.0,78,0.00,,,0.00,WUHU21636XXSP,2013-12-01 08:57:00,
2013-12-01 03:01:00,28.0,22.1,30.11,SSE,157,0.0,0.0,78,0.00,,,0.00,WUHU21636XXSP,2013-12-01 09:01:00,
2013-12-01 03:06:00,28.0,22.1,30.11,SSE,157,0.0,0.0,78,0.00,,,0.00,WUHU21636XXSP,2013-12-01 09:06:00,
2013-12-01 03:11:00,28.0,22.1,30.11,SSE,157,0.0,0.0,78,0.00,,,0.00,WUHU21636XXSP,2013-12-01 09:11:00,
2013-12-01 03:16:00,28.0,22.1,30.11,SSE,157,0.0,0.0,78,0.00,,,0.00,WUHU21636XXSP,2013-12-01 09:16:00,
2013-12-01 03:21:00,28.0,22.1,30.11,SSE,157,0.0,0.0,78,0.00,,,0.00,WUHU21636XXSP,2013-12-01 09:21:00,
2013-12-01 03:26:00,28.0,22.1,30.12,SSE,157,0.0,0.0,78,0.00,,,0.00,WUHU21636XXSP,2013-12-01 09:26:00,
2013-12-01 03:31:00,28.0,22.1,30.12,SSE,157,0.0,0.0,78,0.00,,,0.00,WUHU21636XXSP,2013-12-01 09:31:00,
2013-12-01 03:36:00,28.0,22.1,30.12,SSE,157,0.0,0.0,78,0.00,,,0.00,WUHU21636XXSP,2013-12-01 09:36:00,
2013-12-01 03:41:00,28.0,22.1,30.12,SSE,157,0.0,0.0,78,0.00,,,0.00,WUHU21636XXSP,2013-12-01 09:41:00,
2013-12-01 03:46:00,28.0,22.1,30.12,SSE,157,0.0,0.0,78,0.00,,,0.00,WUHU21636XXSP,2013-12-01 09:46:00,
2013-12-01 03:51:00,28.0,22.1,30.12,SSE,157,0.0,0.0,78,0.00,,,0.00,WUHU21636XXSP,2013-12-01 09:51:00,
2013-12-01 03:56:00,27.9,22.0,30.12,SSE,157,0.0,0.0,78,0.00,,,0.00,WUHU21636XXSP,2013-12-01 09:56:00,
2013-12-01 04:01:00,27.7,21.8,30.12,SSE,157,0.0,0.0,78,0.00,,,0.00,WUHU21636XXSP,2013-12-01 10:01:00,
2013-12-01 04:06:00,27.7,21.8,30.12,SSE,157,0.0,0.0,78,0.00,,,0.00,WUHU21636XXSP,2013-12-01 10:06:00,
2013-12-01 04:11:00,27.7,21.8,30.12,SSE,157,0.0,0.0,78,0.00,,,0.00,WUHU21636XXSP,2013-12-01 10:11:00,
2013-12-01 04:16:00,27.7,21.8,30.12,SSE,157,0.0,0.0,78,0.00,,,0.00,WUHU21636XXSP,2013-12-01 10:16:00,
2013-12-01 04:21:00,27.7,21.8,30.12,SSE,157,0.0,0.0,78,0.00,,,0.00,WUHU21636XXSP,2013-12-01 10:21:00,
2013-12-01 04:26:00,27.7,21.8,30.11,SSE,157,0.0,0.0,78,0.00,,,0.00,WUHU21636XXSP,2013-12-01 10:26:00,
2013-12-01 04:31:00,27.7,21.8,30.12,SSE,157,0.0,0.0,78,0.00,,,0.00,WUHU21636XXSP,2013-12-01 10:31:00,
2013-12-01 04:36:00,27.7,22.1,30.12,SSE,157,0.0,0.0,79,0.00,,,0.00,WUHU21636XXSP,2013-12-01 10:36:00,
2013-12-01 04:41:00,27.7,21.8,30.12,SSE,157,0.0,0.0,78,0.00,,,0.00,WUHU21636XXSP,2013-12-01 10:41:00,
2013-12-01 04:46:00,27.7,21.8,30.12,SSE,157,0.0,0.0,78,0.00,,,0.00,WUHU21636XXSP,2013-12-01 10:46:00,
2013-12-01 04:51:00,27.5,21.6,30.12,SSE,157,0.0,0.0,78,0.00,,,0.00,WUHU21636XXSP,2013-12-01 10:51:00,
2013-12-01 04:56:00,27.3,21.4,30.12,SSE,157,0.0,0.0,78,0.00,,,0.00,WUHU21636XXSP,2013-12-01 10:56:00,
2013-12-01 05:01:00,27.3,21.4,30.12,SSE,157,0.0,0.0,78,0.00,,,0.00,WUHU21636XXSP,2013-12-01 11:01:00,
2013-12-01 05:06:00,27.1,21.2,30.12,SSE,157,0.0,0.0,78,0.00,,,0.00,WUHU21636XXSP,2013-12-01 11:06:00,
2013-12-01 05:11:00,27.0,21.1,30.12,SSE,157,0.0,0.0,78,0.00,,,0.00,WUHU21636XXSP,2013-12-01 11:11:00,
2013-12-01 05:16:00,26.8,20.9,30.12,SSE,157,0.0,0.0,78,0.00,,,0.00,WUHU21636XXSP,2013-12-01 11:16:00,
2013-12-01 05:21:00,26.6,20.6,30.13,SSE,157,0.0,0.0,78,0.00,,,0.00,WUHU21636XXSP,2013-12-01 11:21:00,
2013-12-01 05:26:00,26.4,20.4,30.13,SSE,157,0.0,0.0,78,0.00,,,0.00,WUHU21636XXSP,2013-12-01 11:26:00,
2013-12-01 05:31:00,26.1,20.2,30.12,SSE,157,0.0,0.0,78,0.00,,,0.00,WUHU21636XXSP,2013-12-01 11:31:00,
2013-12-01 05:36:00,26.1,20.2,30.12,SSE,157,0.0,0.0,78,0.00,,,0.00,WUHU21636XXSP,2013-12-01 11:36:00,
2013-12-01 05:41:00,25.8,19.9,30.13,SSE,157,0.0,0.0,78,0.00,,,0.00,WUHU21636XXSP,2013-12-01 11:41:00,
2013-12-01 05:46:00,25.6,19.7,30.13,SSE,157,0.0,0.0,78,0.00,,,0.00,WUHU21636XXSP,2013-12-01 11:46:00,
2013-12-01 05:51:00,25.4,19.5,30.13,SSE,157,0.0,0.0,78,0.00,,,0.00,WUHU21636XXSP,2013-12-01 11:51:00,
2013-12-01 05:56:00,25.4,19.5,30.13,SSE,157,0.0,0.0,78,0.00,,,0.00,WUHU21636XXSP,2013-12-01 11:56:00,
2013-12-01 06:01:00,25.2,19.3,30.14,SSE,157,0.0,0.0,78,0.00,,,0.00,WUHU21636XXSP,2013-12-01 12:01:00,
2013-12-01 06:06:00,25.2,19.3,30.14,SSE,157,0.0,0.0,78,0.00,,,0.00,WUHU21636XXSP,2013-12-01 12:06:00,
2013-12-01 06:11:00,25.1,19.2,30.14,SSE,157,0.0,0.0,78,0.00,,,0.00,WUHU21636XXSP,2013-12-01 12:11:00,
2013-12-01 06:16:00,24.9,19.0,30.14,SSE,157,0.0,0.0,78,0.00,,,0.00,WUHU21636XXSP,2013-12-01 12:16:00,
2013-12-01 06:20:00,24.5,18.6,30.14,SSE,157,0.0,0.0,78,0.00,,,0.00,WUHU21636XXSP,2013-12-01 12:20:00,
2013-12-01 06:25:00,24.5,18.6,30.13,SSE,157,0.0,0.0,78,0.00,,,0.00,WUHU21636XXSP,2013-12-01 12:25:00,
2013-12-01 06:30:00,24.3,18.4,30.13,SSE,157,0.0,0.0,78,0.00,,,0.00,WUHU21636XXSP,2013-12-01 12:30:00,
2013-12-01 06:35:00,24.3,18.4,30.12,SSE,157,0.0,0.0,78,0.00,,,0.00,WUHU21636XXSP,2013-12-01 12:35:00,
2013-12-01 06:40:00,24.3,18.4,30.13,SSE,157,0.0,0.0,78,0.00,,,0.00,WUHU21636XXSP,2013-12-01 12:40:00,
2013-12-01 06:45:00,24.3,18.7,30.14,SSE,157,0.0,0.0,79,0.00,,,0.00,WUHU21636XXSP,2013-12-01 12:45:00,
2013-12-01 06:50:00,23.9,18.4,30.14,SSE,157,0.0,0.0,79,0.00,,,0.00,WUHU21636XXSP,2013-12-01 12:50:00,
2013-12-01 06:55:00,23.9,18.4,30.14,SSE,157,0.0,0.0,79,0.00,,,0.00,WUHU21636XXSP,2013-12-01 12:55:00,
2013-12-01 07:00:00,23.7,18.2,30.14,SSE,157,0.0,0.0,79,0.00,,,0.00,WUHU21636XXSP,2013-12-01 13:00:00,
2013-12-01 07:05:00,23.7,18.2,30.14,SSE,157,0.0,0.0,79,0.00,,,0.00,WUHU21636XXSP,2013-12-01 13:05:00,
2013-12-01 07:10:00,23.5,18.0,30.14,SSE,157,0.0,0.0,79,0.00,,,0.00,WUHU21636XXSP,2013-12-01 13:10:00,
2013-12-01 07:15:00,23.3,17.8,30.14,SSE,157,0.0,0.0,79,0.00,,,0.00,WUHU21636XXSP,2013-12-01 13:15:00,
2013-12-01 07:20:00,23.3,17.8,30.14,SSE,157,0.0,0.0,79,0.00,,,0.00,WUHU21636XXSP,2013-12-01 13:20:00,
2013-12-01 07:25:00,23.3,18.1,30.14,SSE,157,0.0,0.0,80,0.00,,,0.00,WUHU21636XXSP,2013-12-01 13:25:00,
2013-12-01 07:30:00,23.3,17.8,30.14,SSE,157,0.0,0.0,79,0.00,,,0.00,WUHU21636XXSP,2013-12-01 13:30:00,
2013-12-01 07:35:00,23.2,18.0,30.14,SSE,157,0.0,0.0,80,0.00,,,0.00,WUHU21636XXSP,2013-12-01 13:35:00,
2013-12-01 07:40:00,23.2,18.0,30.14,SSE,157,0.0,0.0,80,0.00,,,0.00,WUHU21636XXSP,2013-12-01 13:40:00,
2013-12-01 07:45:00,23.2,18.0,30.14,SSE,157,0.0,0.0,80,0.00,,,0.00,WUHU21636XXSP,2013-12-01 13:45:00,
2013-12-01 07:50:00,23.2,18.0,30.14,SSE,157,0.0,0.0,80,0.00,,,0.00,WUHU21636XXSP,2013-12-01 13:50:00,
2013-12-01 07:55:00,23.2,18.0,30.15,SSE,157,0.0,0.0,80,0.00,,,0.00,WUHU21636XXSP,2013-12-01 13:55:00,
2013-12-01 08:00:00,23.2,18.0,30.14,SSE,157,0.0,0.0,80,0.00,,,0.00,WUHU21636XXSP,2013-12-01 14:00:00,
2013-12-01 08:05:00,23.0,17.7,30.14,SSE,157,0.0,0.0,80,0.00,,,0.00,WUHU21636XXSP,2013-12-01 14:05:00,
2013-12-01 08:10:00,23.0,17.7,30.15,SSE,157,0.0,0.0,80,0.00,,,0.00,WUHU21636XXSP,2013-12-01 14:10:00,
2013-12-01 08:15:00,23.3,18.1,30.15,SSE,157,0.0,0.0,80,0.00,,,0.00,WUHU21636XXSP,2013-12-01 14:15:00,
2013-12-01 08:20:00,23.3,18.1,30.15,SSE,157,0.0,0.0,80,0.00,,,0.00,WUHU21636XXSP,2013-12-01 14:20:00,
2013-12-01 08:25:00,23.3,18.1,30.15,SSE,157,0.0,0.0,80,0.00,,,0.00,WUHU21636XXSP,2013-12-01 14:25:00,
2013-12-01 08:30:00,23.5,18.3,30.15,SSE,157,0.0,0.0,80,0.00,,,0.00,WUHU21636XXSP,2013-12-01 14:30:00,
2013-12-01 08:35:00,23.9,18.7,30.15,SSE,157,0.0,0.0,80,0.00,,,0.00,WUHU21636XXSP,2013-12-01 14:35:00,
2013-12-01 08:40:00,23.9,18.7,30.15,SSE,157,0.0,0.0,80,0.00,,,0.00,WUHU21636XXSP,2013-12-01 14:40:00,
2013-12-01 08:45:00,24.3,19.0,30.15,SSE,157,0.0,0.0,80,0.00,,,0.00,WUHU21636XXSP,2013-12-01 14:45:00,
2013-12-01 08:50:00,24.5,19.2,30.15,SSE,157,0.0,0.0,80,0.00,,,0.00,WUHU21636XXSP,2013-12-01 14:50:00,
2013-12-01 08:55:00,24.9,19.6,30.15,SSE,157,0.0,0.0,80,0.00,,,0.00,WUHU21636XXSP,2013-12-01 14:55:00,
2013-12-01 09:00:00,25.6,20.3,30.14,SSE,157,0.0,0.0,80,0.00,,,0.00,WUHU21636XXSP,2013-12-01 15:00:00,
2013-12-01 09:05:00,26.0,20.4,30.14,SSE,157,0.0,0.0,79,0.00,,,0.00,WUHU21636XXSP,2013-12-01 15:05:00,
2013-12-01 09:10:00,26.4,20.7,30.15,SSE,157,0.0,0.0,79,0.00,,,0.00,WUHU21636XXSP,2013-12-01 15:10:00,
2013-12-01 09:15:00,27.0,21.4,30.15,SSE,157,0.0,0.0,79,0.00,,,0.00,WUHU21636XXSP,2013-12-01 15:15:00,
2013-12-01 09:20:00,27.7,21.8,30.15,SSE,157,0.0,0.0,78,0.00,,,0.00,WUHU21636XXSP,2013-12-01 15:20:00,
2013-12-01 09:25:00,28.2,22.3,30.15,SE,135,0.0,0.0,78,0.00,,,0.00,WUHU21636XXSP,2013-12-01 15:25:00,
2013-12-01 09:30:00,28.9,22.6,30.15,SE,135,0.0,0.0,77,0.00,,,0.00,WUHU21636XXSP,2013-12-01 15:30:00,
2013-12-01 09:35:00,29.6,23.3,30.15,East,90,0.0,0.0,77,0.00,,,0.00,WUHU21636XXSP,2013-12-01 15:35:00,
2013-12-01 09:40:00,29.9,23.3,30.15,East,90,0.0,0.0,76,0.00,,,0.00,WUHU21636XXSP,2013-12-01 15:40:00,
2013-12-01 09:45:00,30.8,24.1,30.15,East,90,0.0,0.0,76,0.00,,,0.00,WUHU21636XXSP,2013-12-01 15:45:00,
2013-12-01 09:50:00,31.5,24.2,30.15,ESE,112,0.0,0.0,74,0.00,,,0.00,WUHU21636XXSP,2013-12-01 15:50:00,
2013-12-01 09:55:00,32.0,24.7,30.15,ENE,67,0.0,0.0,74,0.00,,,0.00,WUHU21636XXSP,2013-12-01 15:55:00,
2013-12-01 10:00:00,32.8,24.8,30.15,ENE,67,0.0,0.0,72,0.00,,,0.00,WUHU21636XXSP,2013-12-01 16:00:00,
2013-12-01 10:05:00,33.4,25.1,30.15,East,90,0.0,0.0,71,0.00,,,0.00,WUHU21636XXSP,2013-12-01 16:05:00,
2013-12-01 10:10:00,33.7,25.4,30.15,ESE,112,0.0,0.0,71,0.00,,,0.00,WUHU21636XXSP,2013-12-01 16:10:00,
2013-12-01 10:15:00,34.7,25.6,30.15,ESE,112,0.0,0.0,69,0.00,,,0.00,WUHU21636XXSP,2013-12-01 16:15:00,
2013-12-01 10:20:00,34.9,25.4,30.14,ESE,112,0.0,0.0,68,0.00,,,0.00,WUHU21636XXSP,2013-12-01 16:20:00,
2013-12-01 10:25:00,35.3,25.5,30.14,SSE,157,0.0,0.0,67,0.00,,,0.00,WUHU21636XXSP,2013-12-01 16:25:00,
2013-12-01 10:30:00,36.2,26.0,30.14,ESE,112,0.0,0.0,66,0.00,,,0.00,WUHU21636XXSP,2013-12-01 16:30:00,
2013-12-01 10:35:00,36.5,26.0,30.14,East,90,0.0,0.0,65,0.00,,,0.00,WUHU21636XXSP,2013-12-01 16:35:00,
2013-12-01 10:40:00,37.0,26.4,30.14,ENE,67,0.0,0.0,65,0.00,,,0.00,WUHU21636XXSP,2013-12-01 16:40:00,
2013-12-01 10:45:00,37.0,25.2,30.14,East,90,0.0,0.0,62,0.00,,,0.00,WUHU21636XXSP,2013-12-01 16:45:00,
2013-12-01 10:50:00,37.5,25.7,30.13,East,90,0.0,0.0,62,0.00,,,0.00,WUHU21636XXSP,2013-12-01 16:50:00,
2013-12-01 10:55:00,37.7,25.5,30.14,ENE,67,0.0,0.0,61,0.00,,,0.00,WUHU21636XXSP,2013-12-01 16:55:00,
2013-12-01 11:00:00,38.4,25.8,30.13,ESE,112,0.0,0.0,60,0.00,,,0.00,WUHU21636XXSP,2013-12-01 17:00:00,
2013-12-01 11:05:00,38.8,25.8,30.13,ENE,67,0.0,0.0,59,0.00,,,0.00,WUHU21636XXSP,2013-12-01 17:05:00,
2013-12-01 11:10:00,38.8,25.8,30.12,ENE,67,0.0,0.0,59,0.00,,,0.00,WUHU21636XXSP,2013-12-01 17:10:00,
2013-12-01 11:15:00,39.1,26.0,30.13,NNE,22,0.0,0.0,59,0.00,,,0.00,WUHU21636XXSP,2013-12-01 17:15:00,
2013-12-01 11:20:00,39.4,25.9,30.12,NNE,22,0.0,0.0,58,0.00,,,0.00,WUHU21636XXSP,2013-12-01 17:20:00,
2013-12-01 11:25:00,40.0,26.5,30.12,ENE,67,0.0,0.0,58,0.00,,,0.00,WUHU21636XXSP,2013-12-01 17:25:00,
2013-12-01 11:30:00,40.0,26.0,30.12,South,180,0.0,0.0,57,0.00,,,0.00,WUHU21636XXSP,2013-12-01 17:30:00,
2013-12-01 11:35:00,40.3,26.8,30.12,SE,135,0.0,0.0,58,0.00,,,0.00,WUHU21636XXSP,2013-12-01 17:35:00,
2013-12-01 11:40:00,40.7,26.7,30.12,SE,135,0.0,0.0,57,0.00,,,0.00,WUHU21636XXSP,2013-12-01 17:40:00,
2013-12-01 11:45:00,41.2,26.7,30.12,SE,135,0.0,0.0,56,0.00,,,0.00,WUHU21636XXSP,2013-12-01 17:45:00,
2013-12-01 11:50:00,41.5,27.0,30.11,SE,135,0.0,0.0,56,0.00,,,0.00,WUHU21636XXSP,2013-12-01 17:50:00,
2013-12-01 11:55:00,41.9,27.4,30.11,ESE,112,0.0,0.0,56,0.00,,,0.00,WUHU21636XXSP,2013-12-01 17:55:00,
2013-12-01 12:00:00,42.2,27.2,30.11,ESE,112,0.0,0.0,55,0.00,,,0.00,WUHU21636XXSP,2013-12-01 18:00:00,
2013-12-01 12:05:00,42.4,27.0,30.11,ESE,112,0.0,0.0,54,0.00,,,0.00,WUHU21636XXSP,2013-12-01 18:05:00,
2013-12-01 12:10:00,42.4,26.5,30.10,NE,45,0.0,0.0,53,0.00,,,0.00,WUHU21636XXSP,2013-12-01 18:10:00,
2013-12-01 12:15:00,42.4,27.0,30.10,ESE,112,0.0,0.0,54,0.00,,,0.00,WUHU21636XXSP,2013-12-01 18:15:00,
2013-12-01 12:20:00,42.8,27.3,30.10,SSW,202,0.0,0.0,54,0.00,,,0.00,WUHU21636XXSP,2013-12-01 18:20:00,
2013-12-01 12:25:00,42.8,26.9,30.10,SW,225,0.0,0.0,53,0.00,,,0.00,WUHU21636XXSP,2013-12-01 18:25:00,
2013-12-01 12:30:00,42.2,25.8,30.09,SW,225,0.0,0.0,52,0.00,,,0.00,WUHU21636XXSP,2013-12-01 18:30:00,
2013-12-01 12:35:00,42.2,26.3,30.09,SW,225,0.0,0.0,53,0.00,,,0.00,WUHU21636XXSP,2013-12-01 18:35:00,
2013-12-01 12:40:00,42.6,26.2,30.08,SSW,202,0.0,0.0,52,0.00,,,0.00,WUHU21636XXSP,2013-12-01 18:40:00,
2013-12-01 12:45:00,42.1,25.7,30.08,WNW,292,0.0,0.0,52,0.00,,,0.00,WUHU21636XXSP,2013-12-01 18:45:00,
2013-12-01 12:50:00,42.1,26.2,30.08,West,270,0.0,0.0,53,0.00,,,0.00,WUHU21636XXSP,2013-12-01 18:50:00,
2013-12-01 12:55:00,42.2,26.3,30.08,SSE,157,0.0,0.0,53,0.00,,,0.00,WUHU21636XXSP,2013-12-01 18:55:00,
2013-12-01 13:00:00,42.1,26.2,30.08,SW,225,0.0,0.0,53,0.00,,,0.00,WUHU21636XXSP,2013-12-01 19:00:00,
2013-12-01 13:05:00,42.2,26.8,30.07,SSE,157,0.0,0.0,54,0.00,,,0.00,WUHU21636XXSP,2013-12-01 19:05:00,
2013-12-01 13:10:00,42.4,26.5,30.07,SSE,157,0.0,0.0,53,0.00,,,0.00,WUHU21636XXSP,2013-12-01 19:10:00,
2013-12-01 13:15:00,42.8,26.9,30.07,SSW,202,0.0,0.0,53,0.00,,,0.00,WUHU21636XXSP,2013-12-01 19:15:00,
2013-12-01 13:20:00,42.8,26.9,30.07,SSW,202,0.0,0.0,53,0.00,,,0.00,WUHU21636XXSP,2013-12-01 19:20:00,
2013-12-01 13:25:00,43.2,27.2,30.07,South,180,0.0,0.0,53,0.00,,,0.00,WUHU21636XXSP,2013-12-01 19:25:00,
2013-12-01 13:30:00,43.2,27.2,30.06,South,180,0.0,0.0,53,0.00,,,0.00,WUHU21636XXSP,2013-12-01 19:30:00,
2013-12-01 13:35:00,43.2,26.7,30.06,SSW,202,0.0,0.0,52,0.00,,,0.00,WUHU21636XXSP,2013-12-01 19:35:00,
2013-12-01 13:38:00,43.2,26.7,30.06,SSW,202,0.0,0.0,52,0.00,,,0.00,WUHU21636XXSP,2013-12-01 19:38:00,
2013-12-01 13:43:00,43.2,26.7,30.06,SSW,202,0.0,0.0,52,0.00,,,0.00,WUHU21636XXSP,2013-12-01 19:43:00,
2013-12-01 13:48:00,43.2,26.7,30.06,SSW,202,0.0,0.0,52,0.00,,,0.00,WUHU21636XXSP,2013-12-01 19:48:00,
2013-12-01 13:53:00,42.8,26.4,30.06,South,180,0.0,0.0,52,0.00,,,0.00,WUHU21636XXSP,2013-12-01 19:53:00,
2013-12-01 13:58:00,43.2,26.7,30.05,SE,135,0.0,0.0,52,0.00,,,0.00,WUHU21636XXSP,2013-12-01 19:58:00,
2013-12-01 14:03:00,43.4,26.9,30.05,SE,135,0.0,0.0,52,0.00,,,0.00,WUHU21636XXSP,2013-12-01 20:03:00,
2013-12-01 14:08:00,43.2,26.7,30.05,SSW,202,0.0,0.0,52,0.00,,,0.00,WUHU21636XXSP,2013-12-01 20:08:00,
2013-12-01 14:13:00,43.2,26.7,30.05,SW,225,0.0,0.0,52,0.00,,,0.00,WUHU21636XXSP,2013-12-01 20:13:00,
2013-12-01 14:18:00,43.2,26.7,30.05,SW,225,0.0,0.0,52,0.00,,,0.00,WUHU21636XXSP,2013-12-01 20:18:00,
2013-12-01 14:23:00,43.2,26.7,30.05,SSW,202,0.0,0.0,52,0.00,,,0.00,WUHU21636XXSP,2013-12-01 20:23:00,
2013-12-01 14:28:00,43.2,26.7,30.05,SSW,202,0.0,0.0,52,0.00,,,0.00,WUHU21636XXSP,2013-12-01 20:28:00,
2013-12-01 14:33:00,43.2,26.7,30.05,SE,135,0.0,0.0,52,0.00,,,0.00,WUHU21636XXSP,2013-12-01 20:33:00,
2013-12-01 14:38:00,42.8,26.9,30.05,SE,135,0.0,0.0,53,0.00,,,0.00,WUHU21636XXSP,2013-12-01 20:38:00,
2013-12-01 14:43:00,42.8,26.9,30.04,ESE,112,0.0,0.0,53,0.00,,,0.00,WUHU21636XXSP,2013-12-01 20:43:00,
2013-12-01 14:48:00,42.8,26.9,30.04,ESE,112,0.0,0.0,53,0.00,,,0.00,WUHU21636XXSP,2013-12-01 20:48:00,
2013-12-01 14:53:00,42.4,26.5,30.04,ESE,112,0.0,0.0,53,0.00,,,0.00,WUHU21636XXSP,2013-12-01 20:53:00,
2013-12-01 14:58:00,42.4,26.5,30.03,ESE,112,0.0,0.0,53,0.00,,,0.00,WUHU21636XXSP,2013-12-01 20:58:00,
2013-12-01 15:03:00,42.1,26.2,30.03,ESE,112,0.0,0.0,53,0.00,,,0.00,WUHU21636XXSP,2013-12-01 21:03:00,
2013-12-01 15:08:00,41.0,25.1,30.03,ESE,112,0.0,0.0,53,0.00,,,0.00,WUHU21636XXSP,2013-12-01 21:08:00,
2013-12-01 15:13:00,40.3,25.4,30.04,ESE,112,0.0,0.0,55,0.00,,,0.00,WUHU21636XXSP,2013-12-01 21:13:00,
2013-12-01 15:18:00,40.0,25.1,30.04,ESE,112,0.0,0.0,55,0.00,,,0.00,WUHU21636XXSP,2013-12-01 21:18:00,
2013-12-01 15:23:00,39.4,25.0,30.04,ESE,112,0.0,0.0,56,0.00,,,0.00,WUHU21636XXSP,2013-12-01 21:23:00,
2013-12-01 15:28:00,39.4,25.0,30.03,ESE,112,0.0,0.0,56,0.00,,,0.00,WUHU21636XXSP,2013-12-01 21:28:00,
2013-12-01 15:33:00,39.1,25.1,30.03,ESE,112,0.0,0.0,57,0.00,,,0.00,WUHU21636XXSP,2013-12-01 21:33:00,
2013-12-01 15:38:00,38.8,25.4,30.03,ESE,112,0.0,0.0,58,0.00,,,0.00,WUHU21636XXSP,2013-12-01 21:38:00,
2013-12-01 15:43:00,38.6,25.2,30.03,ESE,112,0.0,0.0,58,0.00,,,0.00,WUHU21636XXSP,2013-12-01 21:43:00,
2013-12-01 15:48:00,38.4,25.0,30.03,ESE,112,0.0,0.0,58,0.00,,,0.00,WUHU21636XXSP,2013-12-01 21:48:00,
2013-12-01 15:53:00,38.4,25.4,30.03,ESE,112,0.0,0.0,59,0.00,,,0.00,WUHU21636XXSP,2013-12-01 21:53:00,
2013-12-01 15:58:00,38.3,25.3,30.03,ESE,112,0.0,0.0,59,0.00,,,0.00,WUHU21636XXSP,2013-12-01 21:58:00,
2013-12-01 16:03:00,38.1,25.5,30.03,ESE,112,0.0,0.0,60,0.00,,,0.00,WUHU21636XXSP,2013-12-01 22:03:00,
2013-12-01 16:08:00,38.1,25.5,30.03,ESE,112,0.0,0.0,60,0.00,,,0.00,WUHU21636XXSP,2013-12-01 22:08:00,
2013-12-01 16:13:00,37.7,25.1,30.03,ESE,112,0.0,0.0,60,0.00,,,0.00,WUHU21636XXSP,2013-12-01 22:13:00,
2013-12-01 16:18:00,37.5,25.3,30.03,ESE,112,0.0,0.0,61,0.00,,,0.00,WUHU21636XXSP,2013-12-01 22:18:00,
2013-12-01 16:23:00,37.5,25.3,30.03,ESE,112,0.0,0.0,61,0.00,,,0.00,WUHU21636XXSP,2013-12-01 22:23:00,
2013-12-01 16:28:00,37.4,25.2,30.03,ESE,112,0.0,0.0,61,0.00,,,0.00,WUHU21636XXSP,2013-12-01 22:28:00,
2013-12-01 16:33:00,37.2,25.4,30.03,ESE,112,0.0,0.0,62,0.00,,,0.00,WUHU21636XXSP,2013-12-01 22:33:00,
2013-12-01 16:38:00,37.0,25.2,30.02,ESE,112,0.0,0.0,62,0.00,,,0.00,WUHU21636XXSP,2013-12-01 22:38:00,
2013-12-01 16:43:00,36.8,25.0,30.02,ESE,112,0.0,0.0,62,0.00,,,0.00,WUHU21636XXSP,2013-12-01 22:43:00,
2013-12-01 16:48:00,36.5,25.2,30.02,ESE,112,0.0,0.0,63,0.00,,,0.00,WUHU21636XXSP,2013-12-01 22:48:00,
2013-12-01 16:53:00,36.4,25.1,30.02,ESE,112,0.0,0.0,63,0.00,,,0.00,WUHU21636XXSP,2013-12-01 22:53:00,
2013-12-01 16:58:00,36.2,24.9,30.02,ESE,112,0.0,0.0,63,0.00,,,0.00,WUHU21636XXSP,2013-12-01 22:58:00,
2013-12-01 17:03:00,36.0,25.1,30.02,ESE,112,0.0,0.0,64,0.00,,,0.00,WUHU21636XXSP,2013-12-01 23:03:00,
2013-12-01 17:08:00,35.8,24.9,30.02,ESE,112,0.0,0.0,64,0.00,,,0.00,WUHU21636XXSP,2013-12-01 23:08:00,
2013-12-01 17:13:00,35.6,24.7,30.02,ESE,112,0.0,0.0,64,0.00,,,0.00,WUHU21636XXSP,2013-12-01 23:13:00,
2013-12-01 17:18:00,35.6,24.7,30.02,ESE,112,0.0,0.0,64,0.00,,,0.00,WUHU21636XXSP,2013-12-01 23:18:00,
2013-12-01 17:23:00,35.5,24.6,30.02,ESE,112,0.0,0.0,64,0.00,,,0.00,WUHU21636XXSP,2013-12-01 23:23:00,
2013-12-01 17:28:00,35.3,24.4,30.02,ESE,112,0.0,0.0,64,0.00,,,0.00,WUHU21636XXSP,2013-12-01 23:28:00,
2013-12-01 17:33:00,34.9,24.4,30.02,ESE,112,0.0,0.0,65,0.00,,,0.00,WUHU21636XXSP,2013-12-01 23:33:00,
2013-12-01 17:38:00,34.9,24.4,30.02,ESE,112,0.0,0.0,65,0.00,,,0.00,WUHU21636XXSP,2013-12-01 23:38:00,
2013-12-01 17:43:00,34.7,24.5,30.02,ESE,112,0.0,0.0,66,0.00,,,0.00,WUHU21636XXSP,2013-12-01 23:43:00,
2013-12-01 17:48:00,34.5,24.4,30.02,ESE,112,0.0,0.0,66,0.00,,,0.00,WUHU21636XXSP,2013-12-01 23:48:00,
2013-12-01 17:53:00,34.3,24.2,30.02,ESE,112,0.0,0.0,66,0.00,,,0.00,WUHU21636XXSP,2013-12-01 23:53:00,
2013-12-01 17:58:00,34.1,24.4,30.02,ESE,112,0.0,0.0,67,0.00,,,0.00,WUHU21636XXSP,2013-12-01 23:58:00,
2013-12-01 18:03:00,34.1,24.4,30.02,ESE,112,0.0,0.0,67,0.00,,,0.00,WUHU21636XXSP,2013-12-02 00:03:00,
2013-12-01 18:08:00,33.9,24.2,30.02,ESE,112,0.0,0.0,67,0.00,,,0.00,WUHU21636XXSP,2013-12-02 00:08:00,
2013-12-01 18:13:00,33.7,24.3,30.02,ESE,112,0.0,0.0,68,0.00,,,0.00,WUHU21636XXSP,2013-12-02 00:13:00,
2013-12-01 18:18:00,33.7,24.3,30.02,ESE,112,0.0,0.0,68,0.00,,,0.00,WUHU21636XXSP,2013-12-02 00:18:00,
2013-12-01 18:23:00,33.7,24.3,30.02,ESE,112,0.0,0.0,68,0.00,,,0.00,WUHU21636XXSP,2013-12-02 00:23:00,
2013-12-01 18:28:00,33.6,24.2,30.02,ESE,112,0.0,0.0,68,0.00,,,0.00,WUHU21636XXSP,2013-12-02 00:28:00,
2013-12-01 18:33:00,33.4,24.0,30.03,ESE,112,0.0,0.0,68,0.00,,,0.00,WUHU21636XXSP,2013-12-02 00:33:00,
2013-12-01 18:38:00,33.4,24.0,30.02,ESE,112,0.0,0.0,68,0.00,,,0.00,WUHU21636XXSP,2013-12-02 00:38:00,
2013-12-01 18:43:00,33.2,23.8,30.02,ESE,112,0.0,0.0,68,0.00,,,0.00,WUHU21636XXSP,2013-12-02 00:43:00,
2013-12-01 18:48:00,33.0,23.6,30.02,ESE,112,0.0,0.0,68,0.00,,,0.00,WUHU21636XXSP,2013-12-02 00:48:00,
2013-12-01 18:53:00,33.0,24.0,30.01,ESE,112,0.0,0.0,69,0.00,,,0.00,WUHU21636XXSP,2013-12-02 00:53:00,
2013-12-01 18:58:00,33.0,24.3,30.01,ESE,112,0.0,0.0,70,0.00,,,0.00,WUHU21636XXSP,2013-12-02 00:58:00,
2013-12-01 19:03:00,33.0,24.3,30.01,ESE,112,0.0,0.0,70,0.00,,,0.00,WUHU21636XXSP,2013-12-02 01:03:00,
2013-12-01 19:08:00,33.0,24.3,30.01,ESE,112,0.0,0.0,70,0.00,,,0.00,WUHU21636XXSP,2013-12-02 01:08:00,
2013-12-01 19:13:00,33.0,24.3,30.01,ESE,112,0.0,0.0,70,0.00,,,0.00,WUHU21636XXSP,2013-12-02 01:13:00,
2013-12-01 19:18:00,33.0,24.3,30.01,ESE,112,0.0,0.0,70,0.00,,,0.00,WUHU21636XXSP,2013-12-02 01:18:00,
2013-12-01 19:23:00,32.8,24.1,30.00,ESE,112,0.0,0.0,70,0.00,,,0.00,WUHU21636XXSP,2013-12-02 01:23:00,
2013-12-01 19:28:00,32.7,24.0,30.00,ESE,112,0.0,0.0,70,0.00,,,0.00,WUHU21636XXSP,2013-12-02 01:28:00,
2013-12-01 19:33:00,32.7,24.0,30.01,ESE,112,0.0,0.0,70,0.00,,,0.00,WUHU21636XXSP,2013-12-02 01:33:00,
2013-12-01 19:38:00,32.7,24.0,30.01,ESE,112,0.0,0.0,70,0.00,,,0.00,WUHU21636XXSP,2013-12-02 01:38:00,
2013-12-01 19:43:00,32.4,24.1,30.00,ESE,112,0.0,0.0,71,0.00,,,0.00,WUHU21636XXSP,2013-12-02 01:43:00,
2013-12-01 19:48:00,32.4,24.1,30.00,ESE,112,0.0,0.0,71,0.00,,,0.00,WUHU21636XXSP,2013-12-02 01:48:00,
2013-12-01 19:53:00,32.4,24.1,29.99,ESE,112,0.0,0.0,71,0.00,,,0.00,WUHU21636XXSP,2013-12-02 01:53:00,
2013-12-01 19:58:00,32.4,24.1,29.99,ESE,112,0.0,0.0,71,0.00,,,0.00,WUHU21636XXSP,2013-12-02 01:58:00,
2013-12-01 20:03:00,32.0,23.7,29.99,ESE,112,0.0,0.0,71,0.00,,,0.00,WUHU21636XXSP,2013-12-02 02:03:00,
2013-12-01 20:08:00,32.0,23.7,29.99,ESE,112,0.0,0.0,71,0.00,,,0.00,WUHU21636XXSP,2013-12-02 02:08:00,
2013-12-01 20:13:00,32.0,24.1,29.99,ESE,112,0.0,0.0,72,0.00,,,0.00,WUHU21636XXSP,2013-12-02 02:13:00,
2013-12-01 20:18:00,31.8,23.9,29.99,ESE,112,0.0,0.0,72,0.00,,,0.00,WUHU21636XXSP,2013-12-02 02:18:00,
2013-12-01 20:23:00,31.8,23.9,29.99,ESE,112,0.0,0.0,72,0.00,,,0.00,WUHU21636XXSP,2013-12-02 02:23:00,
2013-12-01 20:28:00,31.8,23.9,29.99,ESE,112,0.0,0.0,72,0.00,,,0.00,WUHU21636XXSP,2013-12-02 02:28:00,
2013-12-01 20:33:00,31.8,23.9,29.99,ESE,112,0.0,0.0,72,0.00,,,0.00,WUHU21636XXSP,2013-12-02 02:33:00,
2013-12-01 20:38:00,31.8,23.9,29.98,ESE,112,0.0,0.0,72,0.00,,,0.00,WUHU21636XXSP,2013-12-02 02:38:00,
2013-12-01 20:43:00,31.5,23.9,29.99,ESE,112,0.0,0.0,73,0.00,,,0.00,WUHU21636XXSP,2013-12-02 02:43:00,
2013-12-01 20:48:00,31.5,23.6,29.98,ESE,112,0.0,0.0,72,0.00,,,0.00,WUHU21636XXSP,2013-12-02 02:48:00,
2013-12-01 20:53:00,31.5,23.9,29.98,ESE,112,0.0,0.0,73,0.00,,,0.00,WUHU21636XXSP,2013-12-02 02:53:00,
2013-12-01 20:58:00,31.5,23.6,29.98,ESE,112,0.0,0.0,72,0.00,,,0.00,WUHU21636XXSP,2013-12-02 02:58:00,
2013-12-01 21:03:00,31.8,23.9,29.98,ESE,112,0.0,0.0,72,0.00,,,0.00,WUHU21636XXSP,2013-12-02 03:03:00,
2013-12-01 21:08:00,31.8,24.2,29.98,ESE,112,0.0,0.0,73,0.00,,,0.00,WUHU21636XXSP,2013-12-02 03:08:00,
2013-12-01 21:13:00,31.8,24.2,29.98,ESE,112,0.0,0.0,73,0.00,,,0.00,WUHU21636XXSP,2013-12-02 03:13:00,
2013-12-01 21:18:00,31.8,24.2,29.97,ESE,112,0.0,0.0,73,0.00,,,0.00,WUHU21636XXSP,2013-12-02 03:18:00,
2013-12-01 21:23:00,31.8,24.2,29.97,ESE,112,0.0,0.0,73,0.00,,,0.00,WUHU21636XXSP,2013-12-02 03:23:00,
2013-12-01 21:28:00,31.8,24.2,29.97,ESE,112,0.0,0.0,73,0.00,,,0.00,WUHU21636XXSP,2013-12-02 03:28:00,
2013-12-01 21:33:00,31.8,24.2,29.98,ESE,112,0.0,0.0,73,0.00,,,0.00,WUHU21636XXSP,2013-12-02 03:33:00,
2013-12-01 21:38:00,31.8,24.2,29.98,ESE,112,0.0,0.0,73,0.00,,,0.00,WUHU21636XXSP,2013-12-02 03:38:00,
2013-12-01 21:43:00,31.8,24.2,29.97,ESE,112,0.0,0.0,73,0.00,,,0.00,WUHU21636XXSP,2013-12-02 03:43:00,
2013-12-01 21:48:00,31.8,24.2,29.97,ESE,112,0.0,0.0,73,0.00,,,0.00,WUHU21636XXSP,2013-12-02 03:48:00,
2013-12-01 21:53:00,31.7,24.1,29.97,ESE,112,0.0,0.0,73,0.00,,,0.00,WUHU21636XXSP,2013-12-02 03:53:00,
2013-12-01 21:58:00,31.5,23.9,29.97,ESE,112,0.0,0.0,73,0.00,,,0.00,WUHU21636XXSP,2013-12-02 03:58:00,
2013-12-01 22:03:00,31.5,23.9,29.96,ESE,112,0.0,0.0,73,0.00,,,0.00,WUHU21636XXSP,2013-12-02 04:03:00,
2013-12-01 22:08:00,31.5,24.2,29.96,ESE,112,0.0,0.0,74,0.00,,,0.00,WUHU21636XXSP,2013-12-02 04:08:00,
2013-12-01 22:13:00,31.3,24.0,29.95,ESE,112,0.0,0.0,74,0.00,,,0.00,WUHU21636XXSP,2013-12-02 04:13:00,
2013-12-01 22:18:00,31.1,23.5,29.95,ESE,112,0.0,0.0,73,0.00,,,0.00,WUHU21636XXSP,2013-12-02 04:18:00,
2013-12-01 22:23:00,30.9,23.3,29.95,East,90,0.0,0.0,73,0.00,,,0.00,WUHU21636XXSP,2013-12-02 04:23:00,
2013-12-01 22:28:00,30.8,23.5,29.95,East,90,0.0,0.0,74,0.00,,,0.00,WUHU21636XXSP,2013-12-02 04:28:00,
2013-12-01 22:33:00,30.8,23.5,29.95,East,90,0.0,0.0,74,0.00,,,0.00,WUHU21636XXSP,2013-12-02 04:33:00,
2013-12-01 22:38:00,30.3,23.1,29.95,East,90,0.0,0.0,74,0.00,,,0.00,WUHU21636XXSP,2013-12-02 04:38:00,
2013-12-01 22:43:00,30.1,22.6,29.95,East,90,0.0,0.0,73,0.00,,,0.00,WUHU21636XXSP,2013-12-02 04:43:00,
2013-12-01 22:48:00,29.9,22.4,29.95,East,90,0.0,0.0,73,0.00,,,0.00,WUHU21636XXSP,2013-12-02 04:48:00,
2013-12-01 22:53:00,29.8,22.6,29.95,East,90,0.0,0.0,74,0.00,,,0.00,WUHU21636XXSP,2013-12-02 04:53:00,
2013-12-01 22:58:00,29.4,22.2,29.95,East,90,0.0,0.0,74,0.00,,,0.00,WUHU21636XXSP,2013-12-02 04:58:00,
2013-12-01 23:01:00,29.4,22.2,29.95,East,90,0.0,0.0,74,0.00,,,0.00,WUHU21636XXSP,2013-12-02 05:01:00,
2013-12-01 23:02:00,29.2,22.0,29.95,East,90,0.0,0.0,74,0.00,,,0.00,WUHU21636XXSP,2013-12-02 05:02:00,
2013-12-01 23:07:00,29.2,22.0,29.95,East,90,0.0,0.0,74,0.00,,,0.00,WUHU21636XXSP,2013-12-02 05:07:00,
2013-12-01 23:12:00,29.0,21.8,29.95,East,90,0.0,0.0,74,0.00,,,0.00,WUHU21636XXSP,2013-12-02 05:12:00,
2013-12-01 23:17:00,28.9,21.7,29.96,East,90,0.0,0.0,74,0.00,,,0.00,WUHU21636XXSP,2013-12-02 05:17:00,
2013-12-01 23:22:00,28.7,21.5,29.95,East,90,0.0,0.0,74,0.00,,,0.00,WUHU21636XXSP,2013-12-02 05:22:00,
2013-12-01 23:27:00,28.2,21.1,29.95,East,90,0.0,0.0,74,0.00,,,0.00,WUHU21636XXSP,2013-12-02 05:27:00,
2013-12-01 23:32:00,28.2,21.1,29.95,East,90,0.0,0.0,74,0.00,,,0.00,WUHU21636XXSP,2013-12-02 05:32:00,
2013-12-01 23:37:00,28.0,20.9,29.95,East,90,0.0,0.0,74,0.00,,,0.00,WUHU21636XXSP,2013-12-02 05:37:00,
2013-12-01 23:42:00,28.0,21.2,29.94,East,90,0.0,0.0,75,0.00,,,0.00,WUHU21636XXSP,2013-12-02 05:42:00,
2013-12-01 23:47:00,27.9,21.1,29.94,East,90,0.0,0.0,75,0.00,,,0.00,WUHU21636XXSP,2013-12-02 05:47:00,
2013-12-01 23:52:00,27.7,20.9,29.94,East,90,0.0,0.0,75,0.00,,,0.00,WUHU21636XXSP,2013-12-02 05:52:00,
2013-12-01 23:57:00,27.5,20.7,29.94,East,90,0.0,0.0,75,0.00,,,0.00,WUHU21636XXSP,2013-12-02 05:57:00,